This is the latest recevied weather packets stored in our database for station/object KD4EED. If no packets are shown the sender has not sent any weather packets the latest 10 day(s).
| Time | Temp. | Humidity | Pressure | Rain* | Wind** | Luminosity | Snow |
|---|---|---|---|---|---|---|---|
| 1777677347 | 23.33° C | 57% | 1009.6 hPa | - | - | 483 W/m² | - |
| 1777677045 | 22.78° C | 58% | 1009.4 hPa | - | - | 495 W/m² | - |
| 1777676744 | 22.78° C | 59% | 1009.7 hPa | - | - | 516 W/m² | - |
| 1777676441 | 22.78° C | 59% | 1009.6 hPa | - | - | 536 W/m² | - |
| 1777676138 | 23.33° C | 58% | 1009.7 hPa | - | - | 548 W/m² | - |
| 1777675834 | 23.33° C | 59% | 1009.7 hPa | - | - | 570 W/m² | - |
| 1777675532 | 23.33° C | 59% | 1009.8 hPa | - | - | 585 W/m² | - |
| 1777675229 | 22.78° C | 60% | 1010 hPa | - | - | 604 W/m² | - |
| 1777674926 | 23.33° C | 59% | 1010.1 hPa | - | - | 618 W/m² | - |
| 1777674622 | 23.33° C | 59% | 1009.9 hPa | - | - | 626 W/m² | - |
| 1777674321 | 22.78° C | 60% | 1010.2 hPa | - | - | 638 W/m² | - |
| 1777674016 | 22.78° C | 59% | 1010.2 hPa | - | - | 652 W/m² | - |
| 1777673711 | 23.33° C | 57% | 1010.2 hPa | - | - | 662 W/m² | - |
| 1777673409 | 23.89° C | 56% | 1010.2 hPa | - | - | 674 W/m² | - |
| 1777673107 | 23.89° C | 56% | 1010.4 hPa | - | - | 679 W/m² | - |
| 1777672803 | 23.89° C | 56% | 1010.4 hPa | - | - | 690 W/m² | - |
| 1777672499 | 23.89° C | 55% | 1010.7 hPa | - | - | 695 W/m² | - |
| 1777672195 | 23.33° C | 57% | 1010.6 hPa | - | - | 699 W/m² | - |
| 1777671890 | 23.33° C | 56% | 1010.6 hPa | - | - | 704 W/m² | - |
| 1777671586 | 23.33° C | 57% | 1010.8 hPa | - | - | 706 W/m² | - |
| 1777671284 | 23.89° C | 56% | 1010.8 hPa | - | - | 709 W/m² | - |
| 1777670984 | 23.89° C | 55% | 1010.8 hPa | - | - | 717 W/m² | - |
| 1777670682 | 23.89° C | 56% | 1010.9 hPa | - | - | 723 W/m² | - |
| 1777670378 | 23.89° C | 55% | 1010.9 hPa | - | - | 728 W/m² | - |
| 1777670076 | 23.89° C | 55% | 1011 hPa | - | - | 736 W/m² | - |
* Rain since midnight (hover to see other rain measurements)
** Current wind speed in m/s (hover to see current wind gust speed)